EW2546 Weather Reports


Display with metric or nautical units.
time (UTC)temp
F
wind
direction
speed
MPH
gust
MPH
rain 1hr
in
rain 24hr
in
rain mn
in
humidity
%
barometer
mb
20260508190038 56 0 0.0 7.0 0.00 0.00 0.00 41 1007.4
20260508185526 56 309 0.0 7.0 0.00 0.00 0.00 39 1007.4
20260508185024 56 304 2.0 7.0 0.00 0.00 0.00 41 1007.5
20260508184539 56 0 0.0 7.0 0.00 0.00 0.00 39 1007.5
20260508184023 56 0 1.0 7.0 0.00 0.00 0.00 38 1007.4
20260508183524 56 0 1.0 7.0 0.00 0.00 0.00 39 1007.5
20260508183041 56 0 0.0 5.0 0.00 0.00 0.00 41 1007.4
20260508182524 56 0 1.0 7.0 0.00 0.00 0.00 43 1007.4
20260508182024 55 303 0.0 7.0 0.00 0.00 0.00 43 1007.5
20260508181539 55 322 1.0 7.0 0.00 0.00 0.00 45 1007.4
20260508181027 55 0 1.0 6.0 0.00 0.00 0.00 39 1007.4
20260508180525 56 260 0.0 10.0 0.00 0.00 0.00 41 1007.4
20260508180039 56 0 1.0 10.0 0.00 0.00 0.00 38 1007.3
20260508175524 56 0 0.0 8.0 0.00 0.00 0.00 42 1007.4
20260508175028 55 306 0.0 8.0 0.00 0.00 0.00 39 1007.4
20260508174554 56 0 2.0 7.0 0.00 0.00 0.00 38 1007.3
20260508174028 57 0 0.0 10.0 0.00 0.00 0.00 40 1007.3
20260508173525 57 334 3.0 10.0 0.00 0.00 0.00 38 1007.3
20260508173037 58 240 3.0 9.0 0.00 0.00 0.00 35 1007.3
20260508172524 58 0 0.0 5.0 0.00 0.00 0.00 40 1007.3
20260508172024 57 0 0.0 5.0 0.00 0.00 0.00 38 1007.3
20260508171550 55 275 0.0 9.0 0.00 0.00 0.00 43 1007.3
20260508171024 55 319 1.0 9.0 0.00 0.00 0.00 42 1007.4
20260508170524 54 0 0.0 5.0 0.00 0.00 0.00 43 1007.5
20260508170043 54 0 0.0 5.0 0.00 0.00 0.00 43 1007.5
20260508165523 54 0 0.0 10.0 0.00 0.00 0.00 43 1007.6
20260508165023 54 0 3.0 10.0 0.00 0.00 0.00 43 1007.6
20260508164542 54 309 3.0 9.0 0.00 0.00 0.00 40 1007.5
20260508164024 55 300 1.0 8.0 0.00 0.00 0.00 43 1007.5
20260508163525 55 0 1.0 6.0 0.00 0.00 0.00 42 1007.5
20260508163038 55 0 1.0 6.0 0.00 0.00 0.00 41 1007.5
20260508162527 55 303 2.0 7.0 0.00 0.00 0.00 39 1007.5
20260508162027 55 309 0.0 7.0 0.00 0.00 0.00 42 1007.4
20260508161542 55 310 1.0 7.0 0.00 0.00 0.00 41 1007.4
20260508161027 55 0 1.0 10.0 0.00 0.00 0.00 38 1007.4
20260508160526 55 299 2.0 10.0 0.00 0.00 0.00 39 1007.3
20260508160038 55 174 0.0 4.0 0.00 0.00 0.00 40 1007.2
20260508155529 55 0 0.0 6.0 0.00 0.00 0.00 40 1007.3
20260508155027 56 0 1.0 6.0 0.00 0.00 0.00 40 1007.4
20260508154542 56 264 0.0 5.0 0.00 0.00 0.00 39 1007.5
20260508154026 55 0 0.0 6.0 0.00 0.00 0.00 40 1007.4
20260508153529 55 0 0.0 6.0 0.00 0.00 0.00 40 1007.4
20260508153042 55 0 0.0 5.0 0.00 0.00 0.00 43 1007.4
20260508152529 55 0 1.0 6.0 0.00 0.00 0.00 39 1007.5
20260508152030 55 272 1.0 8.0 0.00 0.00 0.00 42 1007.6
20260508151546 55 319 2.0 8.0 0.00 0.00 0.00 44 1007.6
20260508151030 55 292 1.0 7.0 0.00 0.00 0.00 46 1007.6
20260508150527 55 304 0.0 5.0 0.00 0.00 0.00 44 1007.5
20260508150039 55 0 0.0 5.0 0.00 0.00 0.00 42 1007.6
20260508145525 55 0 1.0 5.0 0.00 0.00 0.00 43 1007.6
20260508145028 56 0 1.0 5.0 0.00 0.00 0.00 42 1007.6
20260508144538 56 0 2.0 7.0 0.00 0.00 0.00 43 1007.7
20260508144027 55 0 0.0 7.0 0.00 0.00 0.00 45 1007.6
20260508143527 55 287 2.0 11.0 0.00 0.00 0.00 42 1007.8
20260508143036 55 301 1.0 11.0 0.00 0.00 0.00 47 1007.8
20260508142525 55 303 3.0 11.0 0.00 0.00 0.00 43 1007.8
20260508142028 54 0 1.0 8.0 0.00 0.00 0.00 48 1007.9
20260508141536 54 313 1.0 9.0 0.00 0.00 0.00 44 1007.9
20260508141025 55 324 4.0 9.0 0.00 0.00 0.00 44 1008.0
20260508140525 54 312 2.0 8.0 0.00 0.00 0.00 46 1008.0
20260508140041 54 0 0.0 8.0 0.00 0.00 0.00 45 1008.1
20260508135526 54 298 2.0 7.0 0.00 0.00 0.00 46 1008.1
20260508135026 54 246 2.0 12.0 0.00 0.00 0.00 47 1008.1
20260508134539 54 0 3.0 12.0 0.00 0.00 0.00 45 1008.1
20260508134026 54 319 1.0 5.0 0.00 0.00 0.00 47 1008.1
20260508133527 54 0 0.0 5.0 0.00 0.00 0.00 47 1008.3
20260508133059 53 0 0.0 5.0 0.00 0.00 0.00 50 1008.2
20260508132527 53 0 1.0 7.0 0.00 0.00 0.00 48 1008.2
20260508132025 53 0 0.0 9.0 0.00 0.00 0.00 50 1008.2
20260508131538 52 0 0.0 9.0 0.00 0.00 0.00 52 1008.2
20260508131028 52 0 0.0 9.0 0.00 0.00 0.00 50 1008.3
20260508130525 51 305 1.0 7.0 0.00 0.00 0.00 53 1008.4
20260508130042 51 305 2.0 6.0 0.00 0.00 0.00 53 1008.3
20260508125525 51 297 0.0 7.0 0.00 0.00 0.00 54 1008.3
20260508125026 51 0 0.0 7.0 0.00 0.00 0.00 53 1008.4
20260508124537 51 303 2.0 6.0 0.00 0.00 0.00 53 1008.4
20260508124025 51 288 1.0 7.0 0.00 0.00 0.00 51 1008.5
20260508123525 50 324 0.0 7.0 0.00 0.00 0.00 55 1008.5
20260508123040 50 323 1.0 8.0 0.00 0.00 0.00 55 1008.5
20260508122527 50 0 3.0 8.0 0.00 0.00 0.00 53 1008.4
20260508122025 49 0 1.0 6.0 0.00 0.00 0.00 54 1008.4
20260508121538 48 0 0.0 8.0 0.00 0.00 0.00 57 1008.4
20260508121025 48 271 0.0 8.0 0.00 0.00 0.00 56 1008.3
20260508120524 47 0 0.0 5.0 0.00 0.00 0.00 57 1008.3
20260508120049 47 0 0.0 5.0 0.00 0.00 0.00 61 1008.3
20260508115525 46 0 1.0 5.0 0.00 0.00 0.00 62 1008.3
20260508115026 45 0 1.0 5.0 0.00 0.00 0.00 65 1008.4
20260508114542 44 0 0.0 0.0 0.00 0.00 0.00 73 1008.3
20260508114029 43 0 0.0 0.0 0.00 0.00 0.00 74 1008.3
20260508113526 42 0 0.0 0.0 0.00 0.00 0.00 77 1008.3
20260508113049 41 0 0.0 0.0 0.00 0.00 0.00 79 1008.5
20260508112525 40 0 0.0 0.0 0.00 0.00 0.00 81 1008.5
20260508112025 39 0 0.0 0.0 0.00 0.00 0.00 81 1008.4
20260508111540 38 0 0.0 0.0 0.00 0.00 0.00 85 1008.3
20260508111027 37 0 0.0 0.0 0.00 0.00 0.00 86 1008.3
20260508110526 37 0 0.0 0.0 0.00 0.00 0.00 86 1008.3
20260508110038 36 0 0.0 0.0 0.00 0.00 0.00 86 1008.3
20260508105526 35 0 0.0 0.0 0.00 0.00 0.00 86 1008.2
20260508105051 35 0 0.0 0.0 0.00 0.00 0.00 87 1008.2
20260508104536 35 0 0.0 0.0 0.00 0.00 0.00 87 1008.1
20260508104027 34 0 0.0 0.0 0.00 0.00 0.00 87 1008.1
20260508103527 34 0 0.0 0.0 0.00 0.00 0.00 87 1008.0
20260508103037 34 0 0.0 0.0 0.00 0.00 0.00 87 1008.0
20260508102525 34 0 0.0 0.0 0.00 0.00 0.00 87 1008.0
20260508102026 33 0 0.0 0.0 0.00 0.00 0.00 87 1008.0
20260508101543 33 0 0.0 0.0 0.00 0.00 0.00 87 1007.9
20260508101026 33 0 0.0 0.0 0.00 0.00 0.00 86 1007.9
20260508100525 33 0 0.0 0.0 0.00 0.00 0.00 86 1007.9
20260508100037 33 0 0.0 0.0 0.00 0.00 0.00 86 1007.7
20260508095529 33 0 0.0 0.0 0.00 0.00 0.00 86 1007.7
20260508095027 33 0 0.0 0.0 0.00 0.00 0.00 85 1007.6
20260508094539 34 0 0.0 0.0 0.00 0.00 0.00 85 1007.5
20260508094027 34 0 0.0 0.0 0.00 0.00 0.00 85 1007.4
20260508093525 34 0 0.0 0.0 0.00 0.00 0.00 85 1007.4
20260508093038 34 0 0.0 0.0 0.00 0.00 0.00 84 1007.2
20260508092522 34 0 0.0 0.0 0.00 0.00 0.00 83 1007.2
20260508092027 34 0 0.0 0.0 0.00 0.00 0.00 82 1007.1
20260508091602 35 0 0.0 0.0 0.00 0.00 0.00 82 1007.1
20260508091027 35 0 0.0 0.0 0.00 0.00 0.00 82 1007.0
20260508090526 35 0 0.0 0.0 0.00 0.00 0.00 82 1006.9
20260508090044 35 0 0.0 0.0 0.00 0.00 0.00 82 1006.9
20260508085525 35 0 0.0 0.0 0.00 0.00 0.00 82 1006.9
20260508085025 35 0 0.0 0.0 0.00 0.00 0.00 82 1006.9
20260508084540 35 0 0.0 0.0 0.00 0.00 0.00 82 1007.0
20260508084035 35 0 0.0 0.0 0.00 0.00 0.00 81 1006.8
20260508083526 36 0 0.0 0.0 0.00 0.00 0.00 80 1006.8
20260508083040 36 0 0.0 0.0 0.00 0.00 0.00 80 1006.8
20260508082525 36 0 0.0 0.0 0.00 0.00 0.00 79 1006.6
20260508082025 36 0 0.0 0.0 0.00 0.00 0.00 79 1006.7
20260508081546 36 0 0.0 0.0 0.00 0.00 0.00 78 1006.5
20260508081025 37 0 0.0 0.0 0.00 0.00 0.00 78 1006.5
20260508080526 37 0 0.0 0.0 0.00 0.00 0.00 78 1006.5
20260508080040 37 0 0.0 0.0 0.00 0.00 0.00 79 1006.5
20260508075524 37 0 0.0 0.0 0.00 0.00 0.00 80 1006.4
20260508075026 37 0 0.0 0.0 0.00 0.00 0.00 81 1006.4
20260508074536 37 0 0.0 0.0 0.00 0.00 0.00 82 1006.2
20260508074025 37 0 0.0 0.0 0.00 0.00 0.00 83 1006.3
20260508073525 37 0 0.0 1.0 0.00 0.00 0.00 82 1006.4
20260508073048 37 0 0.0 2.0 0.00 0.00 0.00 82 1006.3
20260508072524 37 0 0.0 2.0 0.00 0.00 0.00 83 1006.4
20260508072025 37 0 0.0 0.0 0.00 0.00 0.00 82 1006.4
20260508071535 37 0 0.0 0.0 0.00 0.00 0.00 82 1006.4
20260508071027 37 0 0.0 0.0 0.00 0.00 0.00 82 1006.5
20260508070526 38 0 0.0 0.0 0.00 0.00 0.00 81 1006.4
20260508070041 38 0 0.0 0.0 0.00 0.00 0.00 80 1006.5
20260508065527 38 0 0.0 0.0 0.00 0.00 0.00 79 1006.5
20260508065025 38 0 0.0 0.0 0.00 0.00 0.00 79 1006.5
20260508064542 38 0 0.0 0.0 0.00 0.00 0.00 79 1006.6
20260508064027 38 0 0.0 0.0 0.00 0.00 0.00 79 1006.5
20260508063525 38 0 0.0 0.0 0.00 0.00 0.00 79 1006.6
20260508063108 38 0 0.0 0.0 0.00 0.00 0.00 78 1006.6
20260508062528 39 0 0.0 0.0 0.00 0.00 0.00 78 1006.7
20260508062025 39 0 0.0 0.0 0.00 0.00 0.00 77 1006.7
20260508061542 39 0 0.0 0.0 0.00 0.00 0.00 76 1006.8
20260508061025 39 0 0.0 0.0 0.00 0.00 0.00 76 1006.8
20260508060528 39 0 0.0 0.0 0.00 0.00 0.00 76 1006.9
20260508060038 39 0 0.0 0.0 0.00 0.00 0.00 76 1007.0
20260508055524 39 0 0.0 0.0 0.00 0.01 0.00 78 1007.0
20260508055026 39 0 0.0 0.0 0.00 0.01 0.00 78 1007.1
20260508054542 39 0 0.0 0.0 0.00 0.01 0.00 76 1007.2
20260508054025 39 0 0.0 0.0 0.00 0.01 0.00 75 1007.3
20260508053525 39 0 0.0 0.0 0.00 0.01 0.00 73 1007.3
20260508053051 39 0 0.0 0.0 0.00 0.01 0.00 73 1007.4
20260508052526 39 0 0.0 0.0 0.00 0.01 0.00 73 1007.5
20260508052029 40 0 0.0 1.0 0.00 0.01 0.00 74 1007.5
20260508051604 40 0 0.0 1.0 0.00 0.01 0.00 74 1007.5
20260508051025 40 0 0.0 0.0 0.00 0.01 0.00 73 1007.5
20260508050526 40 0 0.0 0.0 0.00 0.01 0.00 74 1007.5
20260508050042 40 0 0.0 0.0 0.00 0.01 0.00 75 1007.6
20260508045524 40 0 0.0 0.0 0.00 0.09 0.00 74 1007.6
20260508045025 40 0 0.0 0.0 0.00 0.09 0.00 74 1007.6
20260508044540 40 0 0.0 0.0 0.00 0.09 0.00 74 1007.6
20260508044024 40 0 0.0 0.0 0.00 0.09 0.00 73 1007.5
20260508043526 40 0 0.0 0.0 0.00 0.09 0.00 72 1007.6
20260508043039 41 0 0.0 0.0 0.00 0.09 0.00 70 1007.6
20260508042525 41 0 0.0 0.0 0.00 0.09 0.00 71 1007.6
20260508042028 41 0 0.0 0.0 0.00 0.09 0.00 73 1007.6
20260508041538 41 0 0.0 0.0 0.00 0.09 0.00 73 1007.5
20260508041025 41 0 0.0 0.0 0.00 0.09 0.00 73 1007.5
20260508040527 42 0 0.0 0.0 0.00 0.09 0.00 69 1007.6
20260508040045 42 0 0.0 0.0 0.00 0.09 0.00 69 1007.6
20260508035527 42 0 0.0 0.0 0.00 0.11 0.09 68 1007.7
20260508035025 42 0 0.0 0.0 0.00 0.11 0.09 69 1007.7
20260508034542 42 0 0.0 0.0 0.00 0.11 0.09 68 1007.7
20260508034024 42 0 0.0 0.0 0.00 0.11 0.09 68 1007.7
20260508033525 43 0 0.0 0.0 0.00 0.11 0.09 69 1007.6
20260508033047 43 0 0.0 0.0 0.00 0.11 0.09 70 1007.6
20260508032525 43 0 0.0 0.0 0.00 0.11 0.09 69 1007.6
20260508032026 43 0 0.0 0.0 0.00 0.11 0.09 65 1007.6
20260508031540 43 0 0.0 0.0 0.00 0.11 0.09 64 1007.6
20260508031024 43 0 0.0 0.0 0.00 0.11 0.09 61 1007.6
20260508030527 43 0 0.0 0.0 0.00 0.11 0.09 63 1007.5
20260508030044 43 0 0.0 0.0 0.00 0.11 0.09 60 1007.6
20260508025526 44 0 0.0 0.0 0.00 0.11 0.09 59 1007.5
20260508025026 44 0 0.0 0.0 0.00 0.11 0.09 60 1007.5
20260508024536 44 0 0.0 0.0 0.00 0.11 0.09 59 1007.4
20260508024025 44 0 0.0 0.0 0.00 0.11 0.09 59 1007.3
20260508023525 45 0 0.0 0.0 0.00 0.11 0.09 62 1007.3
20260508023042 45 0 0.0 0.0 0.00 0.11 0.09 60 1007.2
20260508022524 45 0 0.0 0.0 0.00 0.11 0.09 58 1007.2
20260508022028 46 0 0.0 0.0 0.00 0.11 0.09 58 1007.2
20260508021540 46 0 0.0 0.0 0.00 0.11 0.09 58 1007.2
20260508021029 46 0 0.0 0.0 0.00 0.11 0.09 58 1007.3
20260508020526 47 0 0.0 0.0 0.00 0.11 0.09 62 1007.2
20260508020038 47 0 0.0 0.0 0.00 0.11 0.09 59 1007.1
20260508015524 47 0 0.0 0.0 0.00 0.14 0.09 57 1007.1
20260508015025 48 0 0.0 1.0 0.00 0.14 0.09 59 1007.0
20260508014538 48 0 0.0 2.0 0.00 0.14 0.09 56 1006.9
20260508014024 48 0 0.0 2.0 0.00 0.14 0.09 59 1007.0
20260508013524 48 0 0.0 3.0 0.00 0.14 0.09 52 1007.0
20260508013036 48 0 0.0 6.0 0.00 0.14 0.09 54 1007.0
20260508012525 49 333 0.0 6.0 0.00 0.14 0.09 53 1006.9
20260508012025 49 0 0.0 4.0 0.00 0.14 0.09 53 1006.9
20260508011548 49 0 0.0 4.0 0.00 0.14 0.09 51 1006.8
20260508011024 49 0 0.0 7.0 0.00 0.14 0.09 56 1006.7
20260508010526 49 0 0.0 7.0 0.00 0.14 0.09 58 1006.6
20260508010053 49 0 0.0 4.0 0.00 0.14 0.09 55 1006.5
20260508005527 49 0 0.0 4.0 0.00 0.14 0.09 57 1006.3
20260508005025 49 0 0.0 3.0 0.00 0.14 0.09 57 1006.3
20260508004535 50 296 0.0 4.0 0.00 0.14 0.09 58 1006.2
20260508004025 50 0 0.0 4.0 0.00 0.14 0.09 57 1006.2
20260508003524 50 0 0.0 4.0 0.00 0.14 0.09 54 1006.1
20260508003036 50 0 0.0 4.0 0.00 0.14 0.09 48 1006.0
20260508002528 51 0 0.0 1.0 0.00 0.14 0.09 51 1005.9
20260508002025 51 0 0.0 0.0 0.00 0.14 0.09 53 1005.9
20260508001536 52 0 0.0 0.0 0.00 0.14 0.09 56 1005.8
20260508001026 53 0 0.0 0.0 0.00 0.14 0.09 54 1005.7
20260508000525 53 0 0.0 5.0 0.00 0.14 0.09 48 1005.7
20260508000046 53 0 0.0 6.0 0.00 0.14 0.09 47 1005.6
20260507235528 54 0 0.0 6.0 0.00 0.14 0.09 45 1005.6
20260507235026 54 0 1.0 6.0 0.00 0.14 0.09 42 1005.5
20260507234538 54 0 0.0 4.0 0.00 0.14 0.09 44 1005.4
20260507234024 55 291 0.0 3.0 0.00 0.14 0.09 48 1005.3
20260507233525 55 0 0.0 2.0 0.00 0.14 0.09 45 1005.3
20260507233040 55 0 0.0 5.0 0.00 0.14 0.09 41 1005.3
20260507232527 56 0 1.0 10.0 0.00 0.14 0.09 42 1005.1
20260507232027 56 292 0.0 10.0 0.00 0.14 0.09 42 1005.0
20260507231535 56 292 2.0 10.0 0.00 0.14 0.09 38 1004.9
20260507231024 57 313 1.0 9.0 0.00 0.14 0.09 42 1004.8
20260507230525 57 313 0.0 9.0 0.00 0.14 0.09 41 1004.8
20260507230056 58 0 2.0 9.0 0.00 0.14 0.09 41 1004.8
20260507225526 58 0 0.0 6.0 0.00 0.14 0.09 36 1004.7
20260507225025 58 0 1.0 6.0 0.00 0.14 0.09 36 1004.7
20260507224542 58 300 0.0 5.0 0.00 0.14 0.09 39 1004.6
20260507224028 58 0 0.0 5.0 0.00 0.14 0.09 34 1004.5
20260507223532 58 0 0.0 6.0 0.00 0.14 0.09 37 1004.5
20260507223119 59 0 0.0 9.0 0.00 0.14 0.09 35 1004.4
20260507222523 59 291 2.0 9.0 0.00 0.14 0.09 33 1004.3
20260507222024 60 0 2.0 9.0 0.00 0.14 0.09 33 1004.3
20260507221534 59 0 0.0 9.0 0.00 0.14 0.09 36 1004.2
20260507221024 60 284 0.0 8.0 0.00 0.14 0.09 34 1004.2
20260507220524 60 253 1.0 8.0 0.00 0.14 0.09 34 1004.2
20260507220043 60 304 3.0 7.0 0.00 0.14 0.09 35 1004.2
20260507215527 59 0 0.0 8.0 0.00 0.20 0.09 34 1004.3
20260507215024 60 0 1.0 8.0 0.00 0.20 0.09 35 1004.1
20260507214548 60 315 2.0 11.0 0.00 0.20 0.09 36 1004.2
20260507214025 60 0 3.0 11.0 0.00 0.20 0.09 37 1004.2
20260507213525 61 0 0.0 6.0 0.00 0.20 0.09 34 1004.2
20260507213039 62 0 0.0 6.0 0.00 0.20 0.09 32 1004.1
20260507212524 62 0 1.0 8.0 0.00 0.20 0.09 32 1004.0
20260507212024 62 333 0.0 9.0 0.00 0.20 0.09 32 1004.2
20260507211538 62 310 1.0 9.0 0.00 0.20 0.09 31 1004.1
20260507211024 63 259 2.0 7.0 0.00 0.20 0.09 33 1004.0
20260507210524 63 0 1.0 7.0 0.00 0.20 0.09 31 1004.0
20260507210042 63 305 2.0 7.0 0.00 0.20 0.09 31 1004.1
20260507205531 63 302 1.0 10.0 0.00 0.27 0.09 33 1003.9
20260507205028 62 297 1.0 10.0 0.00 0.27 0.09 33 1003.9
20260507204541 62 288 2.0 9.0 0.00 0.27 0.09 33 1003.8
20260507204024 62 309 1.0 5.0 0.00 0.27 0.09 37 1003.8
20260507203528 62 274 0.0 5.0 0.00 0.27 0.09 35 1003.8
20260507203040 62 297 2.0 8.0 0.00 0.27 0.09 36 1003.8
20260507202526 63 0 1.0 9.0 0.00 0.27 0.09 34 1003.7
20260507202024 64 292 3.0 17.0 0.00 0.27 0.09 35 1003.8
20260507201542 64 260 3.0 17.0 0.00 0.27 0.09 34 1003.8
20260507201034 64 304 2.0 9.0 0.00 0.27 0.09 34 1003.7
20260507200525 64 302 2.0 12.0 0.00 0.27 0.09 34 1003.8
20260507200052 64 269 1.0 12.0 0.00 0.27 0.09 33 1003.7
20260507195524 64 0 1.0 12.0 0.00 0.44 0.09 29 1003.6
20260507195024 64 185 2.0 10.0 0.00 0.44 0.09 29 1003.7
20260507194535 64 335 3.0 15.0 0.00 0.44 0.09 30 1003.7
20260507194024 64 315 3.0 15.0 0.00 0.44 0.09 28 1003.8
20260507193524 64 286 2.0 9.0 0.00 0.44 0.09 30 1003.8
20260507193044 64 288 4.0 9.0 0.00 0.44 0.09 31 1003.8
20260507192525 63 0 3.0 11.0 0.00 0.44 0.09 33 1003.9
20260507192024 63 303 2.0 11.0 0.00 0.44 0.09 38 1003.9
20260507191542 63 313 4.0 9.0 0.00 0.44 0.09 40 1004.0
20260507191023 63 299 2.0 11.0 0.00 0.44 0.09 42 1003.9
20260507190525 63 0 4.0 11.0 0.00 0.44 0.09 43 1003.9